Location: Kapuskasing
(49.3803°N, 82.4001°W)
Time: 13:36:47
(UTC-05:00)

RS-44 - Pass Details

Date: 14 December 2025
Orbit: 1174 x 1511 km, 82.5° (Epoch: 21 January)

Event Time Altitude Azimuth Distance (km) Brightness Sun altitude
Exits shadow 03:37:57 16° 356° (N) 3,138 ? -44.1°
Drops below altitude 10° 03:39:36 10° 2° (N) 3,609 ? -43.9°
Sets 03:42:40 0° 9° (N) 4,555 ? -43.4°
